Change the Weather History Date:

Monday, January 7, 2013

  Actual Average Record
Temperature  
Mean Temperature 50 °F 48 °F  
Max Temperature 58 °F 59 °F 80 °F (1991)
Min Temperature 41 °F 37 °F 17 °F (2014)
Degree Days  
Heating Degree Days 15 17  
Month to date heating degree days 102 119  
Since 1 July heating degree days 800 857  
Cooling Degree Days 0 0  
Month to date cooling degree days 0 0  
Year to date cooling degree days 0 0  
Moisture  
Dew Point 35 °F    
Average Humidity 62    
Maximum Humidity 86    
Minimum Humidity 38    
Precipitation  
Precipitation 0.00 in 0.12 in 2.69 in (1990)
Month to date precipitation 0.13 0.80  
Year to date precipitation 0.13 0.80  
Snow  
Snow 0.00 in 0.00 in - ()
Month to date snowfall 0.0  
Since 1 July snowfall 0.0 0.4  
Snow Depth 0.00 in    
Sea Level Pressure  
Sea Level Pressure 30.32 in    
Wind  
Wind Speed 9 mph (NE)    
Max Wind Speed 18 mph    
Max Gust Speed 25 mph    
Visibility 10 miles    
Events      
T = Trace of Precipitation, MM = Missing Value Source: NWS Daily Summary

Daily Weather History Graph

Daily Weather History Graph

Search for Another Location

Airport or City:

Trip Planner

Search our weather history database for the weather conditions in past years. The results will help you decide how hot, cold, wet, or windy it might be!

Date:

Astronomy

Jan. 07, 2013 Rise Set
Actual Time 7:23 AM EST 5:29 PM EST
Civil Twilight 6:56 AM EST 5:56 PM EST
Nautical Twilight 6:26 AM EST 6:27 PM EST
Astronomical Twilight 5:56 AM EST 6:57 PM EST
Moon 2:49 AM EST (1/7) 1:36 PM EST (1/7)
Length of Visible Light 11h 00m
Length of Day
10h 06m
Waning Crescent, 23% of the Moon is Illuminated
Jan 7
Waning Crescent
Jan 11
New
Jan 18
First Quarter
Jan 26
Full
Feb 3
Last Quarter

Hourly Weather History & Observations

Time (EST) Temp. Windchill Dew Point Humidity Pressure Visibility Wind Dir Wind Speed Gust Speed Precip Events Conditions
12:56 AM 46.9 °F - 42.1 °F 83% 30.19 in 10.0 mi NW 8.1 mph - N/A   Scattered Clouds
1:56 AM 46.0 °F 41.0 °F 39.0 °F 76% 30.21 in 10.0 mi NW 10.4 mph - N/A   Partly Cloudy
2:56 AM 43.0 °F 37.7 °F 37.9 °F 82% 30.22 in 10.0 mi NNW 9.2 mph - N/A   Clear
3:56 AM 43.0 °F 38.2 °F 37.9 °F 82% 30.22 in 10.0 mi North 8.1 mph - N/A   Clear
4:56 AM 43.0 °F 37.7 °F 36.0 °F 76% 30.24 in 10.0 mi NNE 9.2 mph - N/A   Clear
5:56 AM 42.1 °F 37.1 °F 36.0 °F 79% 30.26 in 10.0 mi NNE 8.1 mph - N/A   Clear
6:56 AM 41.0 °F 35.8 °F 36.0 °F 82% 30.29 in 10.0 mi NE 8.1 mph - N/A   Scattered Clouds
7:56 AM 43.0 °F 38.2 °F 37.0 °F 80% 30.32 in 10.0 mi NE 8.1 mph - N/A   Mostly Cloudy
8:56 AM 48.0 °F - 35.1 °F 61% 30.35 in 10.0 mi NE 9.2 mph - N/A   Mostly Cloudy
9:56 AM 51.1 °F - 34.0 °F 52% 30.38 in 10.0 mi NNE 9.2 mph - N/A   Mostly Cloudy
10:56 AM 53.1 °F - 32.0 °F 45% 30.38 in 10.0 mi NNE 15.0 mph - N/A   Mostly Cloudy
11:56 AM 55.0 °F - 32.0 °F 42% 30.37 in 10.0 mi ENE 11.5 mph - N/A   Mostly Cloudy
12:56 PM 57.0 °F - 32.0 °F 39% 30.34 in 10.0 mi NE 11.5 mph - N/A   Scattered Clouds
1:56 PM 57.9 °F - 32.0 °F 37% 30.33 in 10.0 mi NE 10.4 mph - N/A   Scattered Clouds
2:56 PM 57.0 °F - 32.0 °F 39% 30.34 in 10.0 mi ENE 6.9 mph - N/A   Scattered Clouds
3:56 PM 54.0 °F - 28.9 °F 38% 30.35 in 10.0 mi ENE 10.4 mph - N/A   Mostly Cloudy
4:56 PM 52.0 °F - 30.0 °F 43% 30.37 in 10.0 mi East 10.4 mph - N/A   Mostly Cloudy
5:56 PM 48.9 °F - 33.1 °F 54% 30.38 in 10.0 mi East 9.2 mph - N/A   Mostly Cloudy
6:56 PM 48.0 °F - 34.0 °F 58% 30.39 in 10.0 mi ENE 5.8 mph - N/A   Mostly Cloudy
7:56 PM 45.0 °F 43.5 °F 35.1 °F 68% 30.40 in 10.0 mi NNE 3.5 mph - N/A   Mostly Cloudy
8:56 PM 45.0 °F 41.8 °F 36.0 °F 71% 30.38 in 10.0 mi NNE 5.8 mph - N/A   Mostly Cloudy
9:56 PM 45.0 °F 41.2 °F 36.0 °F 71% 30.38 in 10.0 mi NNE 6.9 mph - N/A   Mostly Cloudy
10:56 PM 45.0 °F 41.8 °F 37.0 °F 74% 30.37 in 10.0 mi NE 5.8 mph - N/A   Mostly Cloudy
11:56 PM 45.0 °F 41.2 °F 37.0 °F 74% 30.36 in 10.0 mi NE 6.9 mph - N/A   Mostly Cloudy